.
WxDataArchive / Data Records for 2011-10-20
2011-10-19 October 2011 2011-10-21

Data Records for Thursday, 20 October 2011

Time	Temp	Chill	HIndex	Humid	Dewpt	 Wind 	HiWind	WindDir	Rain 	Barom 
-----	----	-----	------	-----	-----	------	------	-------	-----	----- 
00:00	44.6	44.6	44.6	95	43.3	1	4	315	0.00	29.227 
00:05	44.6	44.6	44.6	95	43.3	2	7	270	0.01	29.227 
00:10	44.5	44.5	44.5	95	43.2	2	6	0	0.01	29.227 
00:15	44.5	44.5	44.5	94	42.9	2	5	0	0.01	29.224 
00:20	44.3	44.3	44.3	95	43.0	2	4	315	0.00	29.224 
00:25	44.3	44.3	44.3	94	42.7	2	6	270	0.01	29.224 
00:30	44.2	44.2	44.2	95	42.9	1	4	270	0.01	29.218 
00:35	44.2	44.2	44.2	95	42.9	2	6	270	0.01	29.218 
00:40	44.1	44.1	44.1	95	42.8	2	5	292	0.01	29.218 
00:45	44.1	44.1	44.1	95	42.8	2	7	0	0.00	29.211 
00:50	44.1	44.1	44.1	95	42.8	2	7	292	0.01	29.211 
00:55	43.9	43.9	43.9	95	42.6	2	9	292	0.01	29.211 
01:00	43.9	43.9	43.9	95	42.6	2	6	292	0.00	29.210 
01:05	43.9	43.9	43.9	95	42.6	2	7	292	0.01	29.210 
01:10	43.8	43.8	43.8	95	42.5	3	7	292	0.00	29.210 
01:15	43.8	43.8	43.8	95	42.5	2	6	315	0.01	29.207 
01:20	43.8	43.8	43.8	95	42.5	3	9	315	0.00	29.207 
01:25	43.6	43.6	43.6	95	42.3	2	7	292	0.00	29.207 
01:30	43.6	43.6	43.6	95	42.3	2	6	315	0.01	29.196 
01:35	43.5	43.5	43.5	94	41.9	2	9	315	0.00	29.196 
01:40	43.5	43.5	43.5	95	42.2	2	5	292	0.00	29.196 
01:45	43.5	43.5	43.5	95	42.2	2	5	270	0.01	29.194 
01:50	43.5	43.5	43.5	95	42.2	2	8	292	0.00	29.194 
01:55	43.3	43.3	43.3	94	41.7	3	12	292	0.00	29.194 
02:00	43.3	43.3	43.3	94	41.7	2	6	292	0.00	29.190 
02:05	43.3	43.3	43.3	94	41.7	1	5	292	0.01	29.190 
02:10	43.3	43.3	43.3	94	41.7	2	7	315	0.00	29.190 
02:15	43.2	43.2	43.2	94	41.6	2	6	315	0.00	29.184 
02:20	43.2	43.2	43.2	94	41.6	2	5	292	0.01	29.184 
02:25	43.2	43.2	43.2	94	41.6	2	6	292	0.00	29.184 
02:30	43.1	43.1	43.1	94	41.5	3	11	315	0.00	29.179 
02:35	43.1	43.1	43.1	94	41.5	2	5	292	0.00	29.179 
02:40	43.1	43.1	43.1	94	41.5	2	6	315	0.00	29.179 
02:45	43.1	43.1	43.1	94	41.5	3	7	292	0.01	29.176 
02:50	42.9	42.9	42.9	94	41.3	3	8	292	0.00	29.176 
02:55	42.9	40.7	42.9	94	41.3	4	10	292	0.00	29.176 
03:00	42.9	42.9	42.9	94	41.3	3	7	315	0.00	29.177 
03:05	42.9	42.9	42.9	94	41.3	2	6	315	0.01	29.177 
03:10	42.9	42.9	42.9	94	41.3	2	7	292	0.00	29.177 
03:15	42.9	42.9	42.9	94	41.3	3	7	292	0.00	29.177 
03:20	42.9	42.9	42.9	94	41.3	3	8	292	0.00	29.177 
03:25	42.9	42.9	42.9	94	41.3	2	6	315	0.00	29.177 
03:30	42.9	42.9	42.9	94	41.3	2	5	292	0.00	29.174 
03:35	42.8	42.8	42.8	94	41.2	3	6	292	0.00	29.174 
03:40	42.8	42.8	42.8	94	41.2	1	4	315	0.00	29.174 
03:45	42.8	42.8	42.8	94	41.2	3	9	292	0.01	29.173 
03:50	42.8	42.8	42.8	94	41.2	2	7	315	0.00	29.173 
03:55	42.8	42.8	42.8	94	41.2	2	4	315	0.00	29.173 
04:00	42.8	42.8	42.8	94	41.2	3	7	292	0.01	29.173 
04:05	42.8	42.8	42.8	94	41.2	3	7	315	0.00	29.173 
04:10	42.8	42.8	42.8	94	41.2	2	4	292	0.00	29.173 
04:15	42.6	42.6	42.6	94	41.0	3	6	292	0.00	29.169 
04:20	42.6	42.6	42.6	94	41.0	3	7	292	0.01	29.169 
04:25	42.6	42.6	42.6	94	41.0	3	7	270	0.00	29.169 
04:30	42.6	42.6	42.6	94	41.0	3	7	270	0.00	29.169 
04:35	42.6	42.6	42.6	94	41.0	3	5	292	0.01	29.169 
04:40	42.6	42.6	42.6	94	41.0	2	5	292	0.00	29.169 
04:45	42.6	42.6	42.6	94	41.0	3	6	315	0.00	29.173 
04:50	42.6	42.6	42.6	94	41.0	3	5	292	0.01	29.173 
04:55	42.6	42.6	42.6	94	41.0	3	7	315	0.00	29.173 
05:00	42.6	42.6	42.6	94	41.0	3	6	292	0.01	29.175 
05:05	42.6	42.6	42.6	94	41.0	2	4	292	0.00	29.175 
05:10	42.6	42.6	42.6	94	41.0	3	5	292	0.01	29.175 
05:15	42.6	42.6	42.6	94	41.0	2	6	315	0.01	29.179 
05:20	42.6	42.6	42.6	94	41.0	3	5	292	0.00	29.179 
05:25	42.6	42.6	42.6	94	41.0	3	9	292	0.01	29.179 
05:30	42.6	42.6	42.6	94	41.0	3	6	338	0.01	29.178 
05:35	42.6	42.6	42.6	94	41.0	3	10	315	0.00	29.178 
05:40	42.6	42.6	42.6	94	41.0	3	7	270	0.01	29.178 
05:45	42.6	42.6	42.6	94	41.0	3	6	270	0.00	29.178 
05:50	42.6	42.6	42.6	94	41.0	3	6	338	0.01	29.178 
05:55	42.6	42.6	42.6	94	41.0	3	7	338	0.01	29.178 
06:00	42.6	42.6	42.6	94	41.0	2	5	270	0.00	29.179 
06:05	42.6	42.6	42.6	94	41.0	3	9	270	0.00	29.179 
06:10	42.6	42.6	42.6	94	41.0	3	6	292	0.00	29.179 
06:15	42.6	42.6	42.6	94	41.0	3	6	315	0.01	29.178 
06:20	42.6	42.6	42.6	94	41.0	2	5	270	0.00	29.178 
06:25	42.5	42.5	42.5	94	40.9	3	7	270	0.00	29.178 
06:30	42.5	42.5	42.5	94	40.9	3	7	338	0.00	29.179 
06:35	42.5	42.5	42.5	94	40.9	3	6	270	0.00	29.179 
06:40	42.5	40.2	42.5	94	40.9	4	7	292	0.00	29.179 
06:45	42.5	42.5	42.5	94	40.9	3	6	292	0.00	29.187 
06:50	42.5	42.5	42.5	94	40.9	3	9	292	0.00	29.187 
06:55	42.5	42.5	42.5	94	40.9	2	6	315	0.00	29.187 
07:00	42.5	42.5	42.5	94	40.9	3	8	315	0.00	29.196 
07:05	42.3	42.3	42.3	94	40.7	3	6	315	0.00	29.196 
07:10	42.3	42.3	42.3	94	40.7	2	9	270	0.01	29.196 
07:15	42.3	42.3	42.3	94	40.7	3	6	315	0.00	29.198 
07:20	42.2	42.2	42.2	94	40.6	3	7	270	0.00	29.198 
07:25	42.2	42.2	42.2	94	40.6	3	7	292	0.00	29.198 
07:30	42.1	42.1	42.1	94	40.5	3	6	315	0.00	29.205 
07:35	42.1	39.7	42.1	94	40.5	4	9	292	0.00	29.205 
07:40	41.9	39.5	41.9	94	40.3	4	10	315	0.00	29.205 
07:45	41.9	39.5	41.9	94	40.3	4	8	292	0.00	29.206 
07:50	41.8	41.8	41.8	94	40.2	3	9	315	0.00	29.206 
07:55	41.8	39.4	41.8	94	40.2	4	11	292	0.00	29.206 
08:00	41.6	39.2	41.6	94	40.0	4	10	315	0.01	29.209 
08:05	41.6	41.6	41.6	94	40.0	3	5	315	0.00	29.209 
08:10	41.6	41.6	41.6	94	40.0	3	6	315	0.00	29.209 
08:15	41.5	41.5	41.5	94	39.9	3	10	315	0.00	29.220 
08:20	41.5	41.5	41.5	94	39.9	3	10	315	0.00	29.220 
08:25	41.5	38.2	41.5	94	39.9	5	11	292	0.00	29.220 
08:30	41.5	39.1	41.5	94	39.9	4	10	292	0.00	29.228 
08:35	41.5	39.1	41.5	94	39.9	4	12	270	0.00	29.228 
08:40	41.5	39.1	41.5	94	39.9	4	9	315	0.01	29.228 
08:45	41.5	41.5	41.5	94	39.9	3	9	270	0.01	29.239 
08:50	41.5	39.1	41.5	94	39.9	4	9	315	0.00	29.239 
08:55	41.5	41.5	41.5	94	39.9	3	7	315	0.01	29.239 
09:00	41.5	41.5	41.5	94	39.9	3	7	315	0.01	29.246 
09:05	41.5	41.5	41.5	94	39.9	3	10	270	0.00	29.246 
09:10	41.5	41.5	41.5	94	39.9	3	9	270	0.00	29.246 
09:15	41.6	41.6	41.6	94	40.0	3	9	338	0.01	29.258 
09:20	41.6	41.6	41.6	94	40.0	3	7	292	0.00	29.258 
09:25	41.8	39.4	41.8	94	40.2	4	11	292	0.01	29.258 
09:30	41.8	41.8	41.8	94	40.2	3	6	315	0.01	29.264 
09:35	41.9	41.9	41.9	94	40.3	3	6	292	0.00	29.264 
09:40	41.9	41.9	41.9	94	40.3	3	9	270	0.00	29.264 
09:45	42.1	42.1	42.1	94	40.5	3	8	292	0.01	29.283 
09:50	42.2	42.2	42.2	94	40.6	3	10	292	0.00	29.283 
09:55	42.2	42.2	42.2	95	40.9	3	8	270	0.01	29.283 
10:00	42.3	40.0	42.3	94	40.7	4	9	270	0.01	29.291 
10:05	42.5	40.2	42.5	95	41.2	4	10	292	0.00	29.291 
10:10	42.6	42.6	42.6	95	41.3	3	7	315	0.00	29.291 
10:15	42.8	42.8	42.8	95	41.5	3	7	315	0.01	29.303 
10:20	42.8	40.6	42.8	95	41.5	4	8	270	0.00	29.303 
10:25	42.6	40.3	42.6	94	41.0	4	8	270	0.01	29.303 
10:30	42.6	40.3	42.6	94	41.0	4	7	292	0.00	29.314 
10:35	42.5	40.2	42.5	94	40.9	4	8	315	0.00	29.314 
10:40	42.5	40.2	42.5	94	40.9	4	10	315	0.00	29.314 
10:45	42.3	42.3	42.3	94	40.7	3	6	292	0.00	29.325 
10:50	42.3	42.3	42.3	94	40.7	2	6	315	0.00	29.325 
10:55	42.3	42.3	42.3	94	40.7	3	7	270	0.01	29.325 
11:00	42.3	40.0	42.3	93	40.4	4	7	270	0.00	29.338 
11:05	42.3	42.3	42.3	93	40.4	3	7	315	0.00	29.338 
11:10	42.3	42.3	42.3	93	40.4	3	7	270	0.00	29.338 
11:15	42.3	40.0	42.3	93	40.4	4	12	270	0.00	29.353 
11:20	42.5	42.5	42.5	93	40.6	2	7	315	0.01	29.353 
11:25	42.6	42.6	42.6	93	40.7	2	6	315	0.00	29.353 
11:30	42.6	40.3	42.6	93	40.7	4	7	315	0.00	29.359 
11:35	42.6	42.6	42.6	93	40.7	3	9	315	0.00	29.359 
11:40	42.9	42.9	42.9	93	41.0	3	9	270	0.00	29.359 
11:45	42.9	42.9	42.9	93	41.0	3	8	292	0.00	29.367 
11:50	43.1	40.9	43.1	93	41.2	4	8	270	0.00	29.367 
11:55	43.3	43.3	43.3	92	41.1	2	5	292	0.00	29.367 
12:00	43.3	43.3	43.3	92	41.1	3	7	315	0.00	29.372 
12:05	43.6	43.6	43.6	92	41.4	3	7	270	0.00	29.372 
12:10	43.8	43.8	43.8	91	41.3	3	6	292	0.00	29.372 
12:15	43.8	43.8	43.8	91	41.3	3	9	315	0.00	29.382 
12:20	43.9	43.9	43.9	90	41.2	3	8	315	0.00	29.382 
12:25	44.1	44.1	44.1	90	41.4	3	6	315	0.00	29.382 
12:30	44.1	44.1	44.1	89	41.1	3	7	315	0.00	29.387 
12:35	44.1	42.1	44.1	88	40.8	4	11	315	0.00	29.387 
12:40	44.2	44.2	44.2	89	41.2	3	8	315	0.00	29.387 
12:45	44.2	44.2	44.2	89	41.2	2	5	315	0.00	29.401 
12:50	44.1	42.1	44.1	89	41.1	4	6	292	0.00	29.401 
12:55	43.9	41.8	43.9	88	40.6	4	9	315	0.00	29.401 
13:00	44.1	44.1	44.1	89	41.1	2	5	270	0.00	29.409 
13:05	44.1	42.1	44.1	89	41.1	4	9	270	0.00	29.409 
13:10	44.1	44.1	44.1	89	41.1	3	6	270	0.00	29.409 
13:15	44.2	44.2	44.2	89	41.2	3	7	270	0.00	29.418 
13:20	44.3	44.3	44.3	89	41.3	3	6	292	0.00	29.418 
13:25	44.3	44.3	44.3	89	41.3	3	5	292	0.00	29.418 
13:30	44.6	42.6	44.6	89	41.6	4	6	292	0.00	29.417 
13:35	44.8	44.8	44.8	90	42.0	3	6	292	0.00	29.417 
13:40	45.1	45.1	45.1	89	42.1	3	6	270	0.00	29.417 
13:45	45.2	45.2	45.2	89	42.2	3	6	270	0.00	29.419 
13:50	45.4	45.4	45.4	89	42.3	3	10	270	0.00	29.419 
13:55	45.5	45.5	45.5	88	42.2	3	7	270	0.00	29.419 
14:00	45.7	45.7	45.7	87	42.1	3	10	315	0.00	29.431 
14:05	45.8	45.8	45.8	87	42.2	3	6	315	0.00	29.431 
14:10	45.7	45.7	45.7	86	41.8	3	6	315	0.00	29.431 
14:15	45.5	45.5	45.5	85	41.3	3	9	315	0.00	29.434 
14:20	45.5	45.5	45.5	85	41.3	3	6	315	0.00	29.434 
14:25	45.7	45.7	45.7	85	41.5	2	5	315	0.00	29.434 
14:30	46.0	46.0	46.0	85	41.7	2	4	292	0.00	29.444 
14:35	46.1	46.1	46.1	85	41.8	2	6	270	0.00	29.444 
14:40	46.2	46.2	46.2	84	41.6	2	5	338	0.00	29.444 
14:45	46.4	46.4	46.4	84	41.8	3	7	270	0.00	29.450 
14:50	46.4	46.4	46.4	84	41.8	2	6	315	0.00	29.450 
14:55	46.2	46.2	46.2	84	41.6	3	7	270	0.00	29.450 
15:00	46.2	46.2	46.2	85	41.9	2	3	315	0.01	29.460 
15:05	46.2	46.2	46.2	86	42.2	2	4	292	0.00	29.460 
15:10	46.4	46.4	46.4	87	42.7	2	4	292	0.00	29.460 
15:15	46.7	46.7	46.7	87	43.0	2	5	270	0.00	29.461 
15:20	46.8	45.2	46.8	86	42.8	4	11	292	0.00	29.461 
15:25	47.0	45.4	47.0	85	42.7	4	9	270	0.00	29.461 
15:30	47.3	45.8	47.3	84	42.7	4	10	315	0.00	29.466 
15:35	47.6	46.1	47.6	84	43.0	4	8	270	0.00	29.466 
15:40	47.4	45.9	47.4	83	42.5	4	7	270	0.00	29.466 
15:45	47.1	47.1	47.1	84	42.5	3	8	270	0.00	29.478 
15:50	46.8	45.2	46.8	85	42.5	4	8	270	0.00	29.478 
15:55	46.7	46.7	46.7	87	43.0	3	7	270	0.00	29.478 
16:00	46.7	45.1	46.7	88	43.3	4	10	270	0.00	29.490 
16:05	46.5	46.5	46.5	88	43.1	2	5	315	0.00	29.490 
16:10	46.5	46.5	46.5	88	43.1	3	7	270	0.00	29.490 
16:15	46.5	44.1	46.5	86	42.5	5	10	270	0.00	29.498 
16:20	46.5	44.8	46.5	85	42.2	4	9	270	0.00	29.498 
16:25	46.5	44.1	46.5	85	42.2	5	11	270	0.00	29.498 
16:30	46.5	44.8	46.5	84	41.9	4	7	270	0.00	29.515 
16:35	46.5	44.1	46.5	84	41.9	5	11	270	0.00	29.515 
16:40	46.5	44.8	46.5	84	41.9	4	9	270	0.00	29.515 
16:45	46.5	44.8	46.5	84	41.9	4	10	292	0.00	29.527 
16:50	46.7	44.3	46.7	83	41.8	5	10	270	0.00	29.527 
16:55	46.7	44.3	46.7	82	41.5	5	10	315	0.00	29.527 
17:00	46.5	44.8	46.5	82	41.3	4	9	270	0.00	29.542 
17:05	46.4	44.0	46.4	82	41.2	5	11	270	0.00	29.542 
17:10	46.2	44.5	46.2	83	41.3	4	7	270	0.00	29.542 
17:15	46.1	44.4	46.1	83	41.2	4	11	270	0.00	29.555 
17:20	46.1	43.6	46.1	82	40.9	5	9	292	0.00	29.555 
17:25	46.1	44.4	46.1	81	40.6	4	10	315	0.00	29.555 
17:30	46.1	44.4	46.1	81	40.6	4	10	315	0.01	29.574 
17:35	45.8	44.0	45.8	81	40.3	4	10	315	0.00	29.574 
17:40	45.5	43.7	45.5	82	40.3	4	10	270	0.00	29.574 
17:45	45.4	43.6	45.4	83	40.5	4	9	270	0.00	29.588 
17:50	45.2	45.2	45.2	84	40.7	3	7	315	0.00	29.588 
17:55	45.1	45.1	45.1	85	40.9	2	7	270	0.00	29.588 
18:00	45.1	43.2	45.1	85	40.9	4	6	270	0.00	29.594 
18:05	45.2	43.3	45.2	84	40.7	4	7	270	0.00	29.594 
18:10	45.4	43.6	45.4	83	40.5	4	10	270	0.00	29.594 
18:15	45.4	43.6	45.4	83	40.5	4	9	270	0.00	29.610 
18:20	45.4	42.8	45.4	84	40.9	5	11	270	0.00	29.610 
18:25	45.2	42.6	45.2	84	40.7	5	10	270	0.00	29.610 
18:30	44.9	41.6	44.9	85	40.7	6	10	270	0.00	29.623 
18:35	44.9	44.9	44.9	86	41.0	3	7	270	0.00	29.623 
18:40	44.8	42.1	44.8	86	40.9	5	10	270	0.00	29.623 
18:45	44.9	42.2	44.9	85	40.7	5	10	270	0.00	29.629 
18:50	44.9	43.0	44.9	85	40.7	4	7	270	0.00	29.629 
18:55	44.9	43.0	44.9	86	41.0	4	9	270	0.00	29.629 
19:00	44.8	44.8	44.8	86	40.9	3	5	270	0.00	29.652 
19:05	44.6	41.9	44.6	87	41.0	5	10	270	0.00	29.652 
19:10	44.5	44.5	44.5	87	40.9	3	7	270	0.00	29.652 
19:15	44.3	41.5	44.3	88	41.0	5	9	270	0.00	29.671 
19:20	44.3	41.5	44.3	88	41.0	5	10	270	0.00	29.671 
19:25	44.2	42.2	44.2	88	40.9	4	8	270	0.00	29.671 
19:30	44.2	42.2	44.2	88	40.9	4	11	270	0.00	29.680 
19:35	44.2	42.2	44.2	88	40.9	4	9	270	0.00	29.680 
19:40	44.1	42.1	44.1	89	41.1	4	7	270	0.00	29.680 
19:45	44.1	42.1	44.1	89	41.1	4	6	270	0.00	29.688 
19:50	44.1	42.1	44.1	89	41.1	4	7	270	0.00	29.688 
19:55	44.1	42.1	44.1	88	40.8	4	10	270	0.00	29.688 
20:00	44.1	42.1	44.1	88	40.8	4	8	270	0.00	29.703 
20:05	44.1	44.1	44.1	88	40.8	3	7	270	0.00	29.703 
20:10	44.1	44.1	44.1	89	41.1	3	6	270	0.00	29.703 
20:15	43.9	43.9	43.9	89	40.9	3	6	270	0.00	29.709 
20:20	43.8	41.7	43.8	89	40.8	4	7	270	0.00	29.709 
20:25	43.6	43.6	43.6	89	40.6	3	7	270	0.00	29.709 
20:30	43.6	43.6	43.6	89	40.6	3	9	270	0.00	29.717 
20:35	43.5	41.4	43.5	89	40.5	4	7	270	0.00	29.717 
20:40	43.5	41.4	43.5	89	40.5	4	6	270	0.00	29.717 
20:45	43.5	43.5	43.5	89	40.5	3	9	270	0.00	29.721 
20:50	43.5	41.4	43.5	89	40.5	4	7	270	0.00	29.721 
20:55	43.5	41.4	43.5	89	40.5	4	7	270	0.00	29.721 
21:00	43.5	43.5	43.5	89	40.5	3	5	270	0.01	29.731 
21:05	43.3	41.1	43.3	90	40.6	4	7	270	0.00	29.731 
21:10	43.3	43.3	43.3	90	40.6	3	6	270	0.00	29.731 
21:15	43.2	41.0	43.2	90	40.5	4	10	270	0.00	29.736 
21:20	43.2	43.2	43.2	91	40.8	3	6	270	0.00	29.736 
21:25	43.2	43.2	43.2	91	40.8	3	7	270	0.00	29.736 
21:30	43.1	43.1	43.1	91	40.7	2	6	270	0.00	29.745 
21:35	43.1	43.1	43.1	91	40.7	2	6	270	0.01	29.745 
21:40	42.9	42.9	42.9	92	40.7	2	6	270	0.00	29.745 
21:45	42.8	42.8	42.8	92	40.6	2	4	270	0.00	29.752 
21:50	42.8	42.8	42.8	92	40.6	3	6	270	0.00	29.752 
21:55	42.6	42.6	42.6	92	40.4	2	4	248	0.00	29.752 
22:00	42.6	42.6	42.6	92	40.4	2	5	248	0.00	29.766 
22:05	42.6	42.6	42.6	92	40.4	2	5	270	0.00	29.766 
22:10	42.6	42.6	42.6	93	40.7	2	5	270	0.00	29.766 
22:15	42.6	42.6	42.6	93	40.7	2	4	292	0.00	29.774 
22:20	42.6	42.6	42.6	93	40.7	1	4	248	0.01	29.774 
22:25	42.6	42.6	42.6	93	40.7	2	4	248	0.00	29.774 
22:30	42.6	42.6	42.6	93	40.7	3	5	270	0.00	29.783 
22:35	42.6	42.6	42.6	93	40.7	2	5	270	0.00	29.783 
22:40	42.6	42.6	42.6	93	40.7	2	5	270	0.00	29.783 
22:45	42.6	42.6	42.6	93	40.7	2	5	270	0.01	29.788 
22:50	42.6	42.6	42.6	93	40.7	2	6	270	0.00	29.788 
22:55	42.6	42.6	42.6	93	40.7	2	5	270	0.00	29.788 
23:00	42.8	42.8	42.8	94	41.2	2	5	270	0.00	29.798 
23:05	42.8	42.8	42.8	94	41.2	2	4	270	0.00	29.798 
23:10	42.8	42.8	42.8	94	41.2	2	6	270	0.00	29.798 
23:15	42.8	42.8	42.8	94	41.2	3	5	270	0.00	29.799 
23:20	42.8	42.8	42.8	94	41.2	2	4	270	0.00	29.799 
23:25	42.8	42.8	42.8	94	41.2	2	5	270	0.00	29.799 
23:30	42.8	42.8	42.8	94	41.2	1	4	270	0.00	29.805 
23:35	42.8	42.8	42.8	94	41.2	1	5	270	0.00	29.805 
23:40	42.8	42.8	42.8	94	41.2	2	5	270	0.00	29.805 
23:45	42.8	42.8	42.8	94	41.2	2	4	270	0.00	29.812 
23:50	42.9	42.9	42.9	94	41.3	1	3	270	0.00	29.812 
23:55	42.9	42.9	42.9	94	41.3	2	4	270	0.00	29.812 

CoCoRaHS
IN-AL-39
A2 Web Hosting
Creative Commons License
GoDaddy
search engine by freefind advanced

loaded 2018-11-15 05:07:28 • last modified 2010-11-18 10:43:29
Privacy PolicyDisclaimer
• wx.awcolley.com is powered by PmWiki v.2002016 •
• all content (unless otherwise noted) © 2018 A W Colley